Simultaneous Nadir Overpasses (SNOs) Predictions

Prediction of SNOs between AQUA and METOP-C Satellite Orbit:

Table of predicted SNOs for the next 14.0 days since TLE Epoch: 2/19/2022
Index Date (AQUA) Time (AQUA) Lat,Lon (AQUA) SZA (AQUA ) Date (METOP-C) Time (METOP-C) Lat,Lon (METOP-C) SZA (METOP-C ) Distance(km) Time Diff (sec)
1 02/21/2022 02:38:19 73.46, 135.61 84.13 02/21/2022 02:37:09 73.40, 134.27 84.15 43.00 70
2 02/21/2022 03:27:51 -73.80, -57.48 95.52 02/21/2022 03:27:44 -73.79, -57.49 95.52 0.86 7
3 02/21/2022 04:17:20 73.88, 109.98 84.56 02/21/2022 04:18:21 73.87, 110.05 84.55 2.06 61
4 02/23/2022 22:12:34 73.75,-158.55 83.42 02/23/2022 22:11:24 73.73,-158.54 83.41 2.15 70
5 02/23/2022 23:02:01 -73.83, 8.92 96.51 02/23/2022 23:02:05 -73.83, 9.01 96.52 2.87 4
6 02/23/2022 23:51:30 73.91, 176.38 83.57 02/23/2022 23:52:42 73.91, 176.54 83.55 5.14 72
7 02/26/2022 17:46:43 73.75, -92.07 82.37 02/26/2022 17:45:45 73.76, -92.05 82.39 1.76 58
8 02/26/2022 18:36:10 -73.83, 75.40 97.57 02/26/2022 18:36:27 -73.81, 75.39 97.58 1.42 17
9 02/26/2022 19:25:47 74.32,-118.10 82.97 02/26/2022 19:26:55 74.34,-115.98 82.88 63.72 68
10 03/01/2022 13:20:51 73.77, -25.64 81.32 03/01/2022 13:20:06 73.74, -25.69 81.31 3.03 45
11 03/01/2022 14:10:18 -73.84, 141.84 98.62 03/01/2022 14:10:47 -73.84, 141.87 98.62 0.88 29
12 03/04/2022 08:54:59 73.75, 40.88 80.21 03/04/2022 08:54:27 73.77, 40.78 80.24 3.65 32
13 03/04/2022 09:44:27 -73.87,-151.76 99.67 03/04/2022 09:45:08 -73.87,-151.66 99.69 3.02 41



Historial Predications of SNOs between AQUA and METOP-C
